| time (UTC) | temp F | wind direction | speed MPH | gust MPH | rain 1hr in | rain 24hr in | rain mn in | humidity % | barometer mb |
| 20260506131555 | 68 | 238 | 2.0 | 9.0 | 0.00 | 0.00 | 0.00 | 67 | 1008.8 |
| 20260506131057 | 68 | 281 | 2.0 | 7.0 | 0.00 | 0.00 | 0.00 | 68 | 1009.0 |
| 20260506130557 | 67 | 288 | 1.0 | 4.0 | 0.00 | 0.00 | 0.00 | 68 | 1009.0 |
| 20260506130121 | 67 | 306 | 1.0 | 4.0 | 0.00 | 0.00 | 0.00 | 68 | 1008.9 |
| 20260506125553 | 67 | 321 | 1.0 | 4.0 | 0.00 | 0.00 | 0.00 | 68 | 1008.7 |
| 20260506125054 | 67 | 279 | 1.0 | 4.0 | 0.00 | 0.00 | 0.00 | 69 | 1008.6 |
| 20260506124600 | 67 | 286 | 1.0 | 4.0 | 0.00 | 0.00 | 0.00 | 69 | 1008.5 |
| 20260506124057 | 67 | 57 | 1.0 | 6.0 | 0.00 | 0.00 | 0.00 | 69 | 1008.5 |
| 20260506123558 | 67 | 214 | 1.0 | 6.0 | 0.00 | 0.00 | 0.00 | 70 | 1008.5 |
| 20260506123058 | 66 | 80 | 1.0 | 4.0 | 0.00 | 0.00 | 0.00 | 70 | 1008.5 |
| 20260506122554 | 66 | 299 | 2.0 | 4.0 | 0.00 | 0.00 | 0.00 | 70 | 1008.5 |
| 20260506122056 | 66 | 341 | 0.0 | 3.0 | 0.00 | 0.00 | 0.00 | 71 | 1008.6 |
| 20260506121557 | 66 | 287 | 1.0 | 4.0 | 0.00 | 0.00 | 0.00 | 71 | 1008.7 |
| 20260506121057 | 66 | 238 | 1.0 | 4.0 | 0.00 | 0.00 | 0.00 | 71 | 1008.8 |
| 20260506120557 | 66 | 347 | 1.0 | 5.0 | 0.00 | 0.00 | 0.00 | 70 | 1008.8 |
| 20260506120057 | 66 | 313 | 1.0 | 5.0 | 0.00 | 0.00 | 0.00 | 71 | 1008.8 |
| 20260506115602 | 67 | 308 | 1.0 | 5.0 | 0.00 | 0.00 | 0.00 | 70 | 1009.1 |
| 20260506115056 | 67 | 268 | 1.0 | 7.0 | 0.00 | 0.00 | 0.00 | 70 | 1009.1 |
| 20260506114603 | 66 | 312 | 2.0 | 7.0 | 0.00 | 0.00 | 0.00 | 70 | 1009.0 |
| 20260506114055 | 66 | 319 | 2.0 | 6.0 | 0.00 | 0.00 | 0.00 | 71 | 1009.1 |
| 20260506113558 | 66 | 287 | 1.0 | 7.0 | 0.00 | 0.00 | 0.00 | 71 | 1009.0 |
| 20260506113101 | 66 | 0 | 1.0 | 7.0 | 0.00 | 0.00 | 0.00 | 71 | 1009.1 |
| 20260506112558 | 66 | 321 | 0.0 | 5.0 | 0.00 | 0.00 | 0.00 | 72 | 1009.0 |
| 20260506112102 | 66 | 9 | 2.0 | 6.0 | 0.00 | 0.00 | 0.00 | 72 | 1009.1 |
| 20260506111557 | 65 | 62 | 1.0 | 6.0 | 0.00 | 0.00 | 0.00 | 72 | 1009.0 |
| 20260506111057 | 65 | 90 | 2.0 | 5.0 | 0.00 | 0.00 | 0.00 | 73 | 1009.1 |
| 20260506110557 | 65 | 117 | 2.0 | 4.0 | 0.00 | 0.00 | 0.00 | 73 | 1009.0 |
| 20260506110108 | 65 | 86 | 1.0 | 5.0 | 0.00 | 0.00 | 0.00 | 73 | 1008.8 |
| 20260506105558 | 65 | 63 | 1.0 | 5.0 | 0.00 | 0.00 | 0.00 | 74 | 1008.8 |
| 20260506105058 | 65 | 227 | 2.0 | 5.0 | 0.00 | 0.00 | 0.00 | 74 | 1008.8 |
| 20260506104625 | 65 | 91 | 1.0 | 4.0 | 0.00 | 0.00 | 0.00 | 74 | 1008.6 |
| 20260506104055 | 65 | 265 | 1.0 | 4.0 | 0.00 | 0.00 | 0.00 | 74 | 1008.8 |
| 20260506103557 | 64 | 208 | 2.0 | 4.0 | 0.00 | 0.00 | 0.00 | 74 | 1009.0 |
| 20260506103105 | 64 | 287 | 1.0 | 3.0 | 0.00 | 0.00 | 0.00 | 74 | 1008.8 |
| 20260506102554 | 64 | 222 | 1.0 | 3.0 | 0.00 | 0.00 | 0.00 | 74 | 1008.8 |
| 20260506102130 | 64 | 342 | 1.0 | 3.0 | 0.00 | 0.00 | 0.00 | 74 | 1008.8 |
| 20260506101556 | 64 | 192 | 1.0 | 3.0 | 0.00 | 0.00 | 0.00 | 74 | 1008.7 |
| 20260506101057 | 64 | 248 | 1.0 | 4.0 | 0.00 | 0.00 | 0.00 | 75 | 1008.7 |
| 20260506100557 | 64 | 309 | 1.0 | 4.0 | 0.00 | 0.00 | 0.00 | 75 | 1008.7 |
| 20260506100058 | 64 | 62 | 0.0 | 3.0 | 0.00 | 0.00 | 0.00 | 75 | 1008.5 |
| 20260506095601 | 64 | 71 | 1.0 | 4.0 | 0.00 | 0.00 | 0.00 | 75 | 1008.5 |
| 20260506095058 | 64 | 306 | 1.0 | 4.0 | 0.00 | 0.00 | 0.00 | 75 | 1008.4 |
| 20260506094555 | 64 | 290 | 1.0 | 3.0 | 0.00 | 0.00 | 0.00 | 75 | 1008.5 |
| 20260506094057 | 64 | 281 | 1.0 | 3.0 | 0.00 | 0.00 | 0.00 | 75 | 1008.3 |
| 20260506093558 | 64 | 63 | 1.0 | 4.0 | 0.00 | 0.00 | 0.00 | 75 | 1008.5 |
| 20260506093055 | 64 | 311 | 1.0 | 4.0 | 0.00 | 0.00 | 0.00 | 76 | 1008.5 |
| 20260506092554 | 64 | 0 | 1.0 | 2.0 | 0.00 | 0.00 | 0.00 | 76 | 1008.5 |
| 20260506092056 | 63 | 281 | 0.0 | 3.0 | 0.00 | 0.00 | 0.00 | 76 | 1008.5 |
| 20260506091556 | 63 | 46 | 0.0 | 3.0 | 0.00 | 0.00 | 0.00 | 76 | 1008.6 |
| 20260506091057 | 63 | 195 | 1.0 | 3.0 | 0.00 | 0.00 | 0.00 | 76 | 1008.6 |
| 20260506090555 | 63 | 284 | 1.0 | 3.0 | 0.00 | 0.00 | 0.00 | 76 | 1008.6 |
| 20260506090057 | 63 | 69 | 0.0 | 2.0 | 0.00 | 0.00 | 0.00 | 75 | 1008.7 |
| 20260506085558 | 64 | 0 | 0.0 | 2.0 | 0.00 | 0.00 | 0.00 | 75 | 1008.7 |
| 20260506085058 | 64 | 185 | 0.0 | 2.0 | 0.00 | 0.00 | 0.00 | 75 | 1008.7 |
| 20260506084558 | 64 | 0 | 0.0 | 2.0 | 0.00 | 0.00 | 0.00 | 75 | 1008.8 |
| 20260506084057 | 64 | 264 | 0.0 | 2.0 | 0.00 | 0.00 | 0.00 | 74 | 1008.7 |
| 20260506083558 | 64 | 115 | 0.0 | 2.0 | 0.00 | 0.00 | 0.00 | 74 | 1008.7 |
| 20260506083058 | 64 | 27 | 0.0 | 2.0 | 0.00 | 0.00 | 0.00 | 74 | 1008.8 |
| 20260506082554 | 64 | 65 | 0.0 | 2.0 | 0.00 | 0.00 | 0.00 | 74 | 1008.7 |
| 20260506082057 | 65 | 259 | 0.0 | 2.0 | 0.00 | 0.00 | 0.00 | 73 | 1008.7 |
| 20260506081601 | 65 | 60 | 0.0 | 2.0 | 0.00 | 0.00 | 0.00 | 73 | 1008.7 |
| 20260506081057 | 65 | 9 | 0.0 | 2.0 | 0.00 | 0.00 | 0.00 | 73 | 1008.8 |
| 20260506080555 | 65 | 283 | 1.0 | 3.0 | 0.00 | 0.00 | 0.00 | 73 | 1008.7 |
| 20260506080106 | 65 | 0 | 0.0 | 3.0 | 0.00 | 0.00 | 0.00 | 72 | 1008.8 |
| 20260506073058 | 65 | 252 | 0.0 | 3.0 | 0.00 | 0.00 | 0.00 | 71 | 1008.8 |
| 20260506072556 | 65 | 315 | 0.0 | 2.0 | 0.00 | 0.00 | 0.00 | 71 | 1008.9 |
| 20260506072054 | 66 | 337 | 0.0 | 2.0 | 0.00 | 0.00 | 0.00 | 70 | 1008.8 |
| 20260506071626 | 66 | 286 | 0.0 | 2.0 | 0.00 | 0.00 | 0.00 | 70 | 1008.8 |
| 20260506071057 | 66 | 0 | 0.0 | 3.0 | 0.00 | 0.00 | 0.00 | 69 | 1008.8 |
| 20260506070558 | 66 | 0 | 1.0 | 3.0 | 0.00 | 0.00 | 0.00 | 69 | 1008.8 |
| 20260506062054 | 66 | 258 | 0.0 | 3.0 | 0.00 | 0.00 | 0.00 | 66 | 1009.0 |
| 20260506061600 | 66 | 57 | 0.0 | 3.0 | 0.00 | 0.00 | 0.00 | 66 | 1008.9 |
| 20260506061054 | 67 | 252 | 1.0 | 3.0 | 0.00 | 0.00 | 0.00 | 66 | 1009.0 |
| 20260506060558 | 67 | 194 | 0.0 | 3.0 | 0.00 | 0.00 | 0.00 | 66 | 1008.9 |
| 20260506051054 | 68 | 277 | 1.0 | 4.0 | 0.00 | 0.00 | 0.00 | 62 | 1009.6 |
| 20260506050557 | 68 | 284 | 1.0 | 4.0 | 0.00 | 0.00 | 0.00 | 62 | 1009.7 |
| 20260506045056 | 68 | 215 | 1.0 | 3.0 | 0.00 | 0.00 | 0.00 | 61 | 1009.6 |
| 20260506044611 | 68 | 22 | 0.0 | 3.0 | 0.00 | 0.00 | 0.00 | 60 | 1009.6 |
| 20260506044055 | 68 | 173 | 0.0 | 3.0 | 0.00 | 0.00 | 0.00 | 60 | 1009.5 |
| 20260506043556 | 68 | 225 | 0.0 | 3.0 | 0.00 | 0.00 | 0.00 | 60 | 1009.6 |
| 20260506043102 | 68 | 207 | 1.0 | 4.0 | 0.00 | 0.00 | 0.00 | 60 | 1009.6 |
| 20260506042557 | 69 | 240 | 1.0 | 4.0 | 0.00 | 0.00 | 0.00 | 59 | 1009.7 |
| 20260506042056 | 69 | 223 | 1.0 | 4.0 | 0.00 | 0.00 | 0.00 | 59 | 1009.6 |
| 20260506041556 | 69 | 73 | 1.0 | 5.0 | 0.00 | 0.00 | 0.00 | 59 | 1009.5 |
| 20260506041057 | 69 | 59 | 1.0 | 5.0 | 0.00 | 0.00 | 0.00 | 59 | 1009.5 |
| 20260506040554 | 69 | 213 | 1.0 | 4.0 | 0.00 | 0.00 | 0.00 | 58 | 1009.5 |
| 20260506040058 | 69 | 203 | 1.0 | 4.0 | 0.00 | 0.00 | 0.00 | 58 | 1009.4 |
| 20260506035555 | 69 | 36 | 1.0 | 3.0 | 0.00 | 0.00 | 0.00 | 58 | 1009.5 |
| 20260506035055 | 69 | 151 | 1.0 | 3.0 | 0.00 | 0.00 | 0.00 | 58 | 1009.4 |
| 20260506034603 | 69 | 205 | 1.0 | 4.0 | 0.00 | 0.00 | 0.00 | 58 | 1009.5 |
| 20260506034058 | 69 | 44 | 1.0 | 5.0 | 0.00 | 0.00 | 0.00 | 57 | 1009.5 |
| 20260506033557 | 69 | 179 | 1.0 | 5.0 | 0.00 | 0.00 | 0.00 | 57 | 1009.5 |
| 20260506033106 | 69 | 238 | 1.0 | 5.0 | 0.00 | 0.00 | 0.00 | 57 | 1009.5 |
| 20260506032557 | 69 | 0 | 1.0 | 4.0 | 0.00 | 0.00 | 0.00 | 57 | 1009.5 |
| 20260506032054 | 69 | 12 | 1.0 | 5.0 | 0.00 | 0.00 | 0.00 | 56 | 1009.5 |
| 20260506031603 | 70 | 56 | 1.0 | 5.0 | 0.00 | 0.00 | 0.00 | 56 | 1009.5 |
| 20260506031058 | 70 | 11 | 2.0 | 5.0 | 0.00 | 0.00 | 0.00 | 56 | 1009.4 |
| 20260506030553 | 70 | 240 | 1.0 | 4.0 | 0.00 | 0.00 | 0.00 | 55 | 1009.4 |
| 20260506030058 | 70 | 212 | 1.0 | 6.0 | 0.00 | 0.00 | 0.00 | 55 | 1009.3 |
| 20260506025557 | 70 | 76 | 1.0 | 6.0 | 0.00 | 0.00 | 0.00 | 55 | 1009.3 |
| 20260506025055 | 70 | 234 | 2.0 | 4.0 | 0.00 | 0.00 | 0.00 | 55 | 1009.2 |
| 20260506024556 | 71 | 230 | 1.0 | 4.0 | 0.00 | 0.00 | 0.00 | 54 | 1009.3 |
| 20260506024058 | 71 | 227 | 2.0 | 4.0 | 0.00 | 0.00 | 0.00 | 54 | 1009.3 |
| 20260506023558 | 71 | 153 | 1.0 | 6.0 | 0.00 | 0.00 | 0.00 | 53 | 1009.3 |
| 20260506023056 | 72 | 117 | 2.0 | 6.0 | 0.00 | 0.00 | 0.00 | 52 | 1009.3 |
| 20260506022554 | 72 | 95 | 1.0 | 6.0 | 0.00 | 0.00 | 0.00 | 51 | 1009.3 |
| 20260506022057 | 72 | 323 | 1.0 | 4.0 | 0.00 | 0.00 | 0.00 | 50 | 1009.3 |
| 20260506021604 | 73 | 126 | 1.0 | 5.0 | 0.00 | 0.00 | 0.00 | 48 | 1009.2 |
| 20260506021056 | 73 | 330 | 1.0 | 6.0 | 0.00 | 0.00 | 0.00 | 48 | 1009.2 |
| 20260506020557 | 73 | 245 | 2.0 | 8.0 | 0.00 | 0.00 | 0.00 | 47 | 1009.2 |
| 20260506020059 | 73 | 276 | 2.0 | 8.0 | 0.00 | 0.00 | 0.00 | 47 | 1009.1 |
| 20260506015554 | 74 | 102 | 1.0 | 7.0 | 0.00 | 0.00 | 0.00 | 46 | 1009.1 |
| 20260506015057 | 74 | 50 | 2.0 | 8.0 | 0.00 | 0.00 | 0.00 | 45 | 1009.1 |
| 20260506014558 | 74 | 248 | 1.0 | 10.0 | 0.00 | 0.00 | 0.00 | 45 | 1009.1 |
| 20260506014054 | 74 | 287 | 2.0 | 11.0 | 0.00 | 0.00 | 0.00 | 44 | 1009.1 |
| 20260506013555 | 74 | 238 | 3.0 | 11.0 | 0.00 | 0.00 | 0.00 | 43 | 1009.0 |
| 20260506013059 | 75 | 275 | 1.0 | 4.0 | 0.00 | 0.00 | 0.00 | 42 | 1008.9 |
| 20260506012557 | 75 | 96 | 1.0 | 3.0 | 0.00 | 0.00 | 0.00 | 42 | 1009.0 |
| 20260506012100 | 75 | 228 | 1.0 | 3.0 | 0.00 | 0.00 | 0.00 | 41 | 1008.8 |
| 20260506011556 | 75 | 283 | 1.0 | 3.0 | 0.00 | 0.00 | 0.00 | 41 | 1008.8 |
| 20260506011058 | 75 | 298 | 1.0 | 5.0 | 0.00 | 0.00 | 0.00 | 40 | 1008.8 |
| 20260506010555 | 76 | 327 | 1.0 | 8.0 | 0.00 | 0.00 | 0.00 | 40 | 1008.7 |
| 20260506005555 | 76 | 313 | 1.0 | 8.0 | 0.00 | 0.00 | 0.00 | 40 | 1008.7 |
| 20260506005057 | 76 | 44 | 1.0 | 4.0 | 0.00 | 0.00 | 0.00 | 39 | 1008.6 |
| 20260506004604 | 76 | 261 | 1.0 | 5.0 | 0.00 | 0.00 | 0.00 | 39 | 1008.6 |
| 20260506004054 | 76 | 340 | 1.0 | 5.0 | 0.00 | 0.00 | 0.00 | 38 | 1008.5 |
| 20260506003601 | 77 | 293 | 1.0 | 5.0 | 0.00 | 0.00 | 0.00 | 38 | 1008.5 |
| 20260506003107 | 77 | 258 | 1.0 | 5.0 | 0.00 | 0.00 | 0.00 | 37 | 1008.5 |
| 20260506002601 | 77 | 283 | 1.0 | 5.0 | 0.00 | 0.00 | 0.00 | 37 | 1008.3 |
| 20260506002054 | 77 | 220 | 1.0 | 4.0 | 0.00 | 0.00 | 0.00 | 36 | 1008.2 |
| 20260506001606 | 77 | 28 | 1.0 | 7.0 | 0.00 | 0.00 | 0.00 | 35 | 1008.2 |
| 20260506001053 | 78 | 30 | 1.0 | 7.0 | 0.00 | 0.00 | 0.00 | 35 | 1008.1 |
| 20260506000558 | 78 | 232 | 2.0 | 9.0 | 0.00 | 0.00 | 0.00 | 34 | 1008.2 |
| 20260506000105 | 78 | 64 | 1.0 | 9.0 | 0.00 | 0.00 | 0.00 | 33 | 1008.2 |
| 20260505235555 | 78 | 292 | 2.0 | 6.0 | 0.00 | 0.00 | 0.00 | 33 | 1008.1 |
| 20260505235055 | 78 | 360 | 2.0 | 4.0 | 0.00 | 0.00 | 0.00 | 33 | 1008.0 |
| 20260505234613 | 79 | 33 | 1.0 | 4.0 | 0.00 | 0.00 | 0.00 | 32 | 1008.0 |
| 20260505234055 | 79 | 80 | 2.0 | 6.0 | 0.00 | 0.00 | 0.00 | 32 | 1008.0 |
| 20260505233557 | 79 | 21 | 2.0 | 6.0 | 0.00 | 0.00 | 0.00 | 32 | 1008.0 |
| 20260505233059 | 79 | 97 | 1.0 | 6.0 | 0.00 | 0.00 | 0.00 | 31 | 1007.9 |
| 20260505232555 | 79 | 58 | 1.0 | 4.0 | 0.00 | 0.00 | 0.00 | 31 | 1007.8 |
| 20260505232059 | 79 | 119 | 1.0 | 4.0 | 0.00 | 0.00 | 0.00 | 30 | 1007.8 |
| 20260505231558 | 80 | 30 | 1.0 | 9.0 | 0.00 | 0.00 | 0.00 | 30 | 1007.7 |
| 20260505231054 | 80 | 331 | 1.0 | 9.0 | 0.00 | 0.00 | 0.00 | 30 | 1007.6 |
| 20260505230559 | 80 | 113 | 3.0 | 9.0 | 0.00 | 0.00 | 0.00 | 29 | 1007.4 |
| 20260505230100 | 80 | 137 | 2.0 | 8.0 | 0.00 | 0.00 | 0.00 | 29 | 1007.4 |
| 20260505225558 | 80 | 351 | 2.0 | 5.0 | 0.00 | 0.00 | 0.00 | 29 | 1007.4 |
| 20260505225055 | 81 | 91 | 2.0 | 8.0 | 0.00 | 0.00 | 0.00 | 28 | 1007.3 |
| 20260505224559 | 81 | 107 | 3.0 | 8.0 | 0.00 | 0.00 | 0.00 | 28 | 1007.3 |
| 20260505224057 | 81 | 268 | 2.0 | 8.0 | 0.00 | 0.00 | 0.00 | 28 | 1007.2 |
| 20260505223557 | 81 | 343 | 3.0 | 10.0 | 0.00 | 0.00 | 0.00 | 28 | 1007.2 |
| 20260505223108 | 81 | 285 | 3.0 | 10.0 | 0.00 | 0.00 | 0.00 | 28 | 1007.1 |
| 20260505222557 | 81 | 339 | 3.0 | 9.0 | 0.00 | 0.00 | 0.00 | 28 | 1007.1 |
| 20260505222058 | 81 | 260 | 2.0 | 10.0 | 0.00 | 0.00 | 0.00 | 28 | 1007.1 |
| 20260505221600 | 81 | 219 | 2.0 | 10.0 | 0.00 | 0.00 | 0.00 | 27 | 1007.1 |
| 20260505221058 | 81 | 304 | 2.0 | 12.0 | 0.00 | 0.00 | 0.00 | 27 | 1007.0 |
| 20260505220557 | 82 | 265 | 3.0 | 12.0 | 0.00 | 0.00 | 0.00 | 27 | 1007.1 |
| 20260505220100 | 82 | 82 | 2.0 | 10.0 | 0.00 | 0.00 | 0.00 | 27 | 1007.1 |
| 20260505215602 | 82 | 291 | 3.0 | 11.0 | 0.00 | 0.00 | 0.00 | 27 | 1007.1 |
| 20260505215057 | 82 | 315 | 2.0 | 11.0 | 0.00 | 0.00 | 0.00 | 27 | 1006.9 |
| 20260505214604 | 82 | 121 | 2.0 | 9.0 | 0.00 | 0.00 | 0.00 | 27 | 1006.9 |
| 20260505214054 | 82 | 178 | 2.0 | 9.0 | 0.00 | 0.00 | 0.00 | 28 | 1006.9 |
| 20260505213559 | 83 | 335 | 2.0 | 12.0 | 0.00 | 0.00 | 0.00 | 28 | 1006.8 |
| 20260505213056 | 83 | 360 | 3.0 | 12.0 | 0.00 | 0.00 | 0.00 | 27 | 1006.7 |
| 20260505212557 | 84 | 111 | 3.0 | 12.0 | 0.00 | 0.00 | 0.00 | 27 | 1006.6 |
| 20260505212058 | 83 | 62 | 3.0 | 11.0 | 0.00 | 0.00 | 0.00 | 26 | 1006.6 |
| 20260505211634 | 84 | 360 | 4.0 | 11.0 | 0.00 | 0.00 | 0.00 | 26 | 1006.6 |
| 20260505211055 | 84 | 360 | 4.0 | 9.0 | 0.00 | 0.00 | 0.00 | 27 | 1006.6 |
| 20260505210557 | 84 | 304 | 5.0 | 11.0 | 0.00 | 0.00 | 0.00 | 27 | 1006.6 |
| 20260505210059 | 84 | 288 | 4.0 | 11.0 | 0.00 | 0.00 | 0.00 | 28 | 1006.6 |
| 20260505205558 | 84 | 244 | 4.0 | 11.0 | 0.00 | 0.00 | 0.00 | 27 | 1006.6 |
| 20260505205056 | 84 | 26 | 3.0 | 11.0 | 0.00 | 0.00 | 0.00 | 27 | 1006.6 |
| 20260505204557 | 84 | 269 | 4.0 | 11.0 | 0.00 | 0.00 | 0.00 | 26 | 1006.6 |
| 20260505204057 | 84 | 148 | 4.0 | 10.0 | 0.00 | 0.00 | 0.00 | 26 | 1006.7 |
| 20260505203554 | 84 | 346 | 4.0 | 10.0 | 0.00 | 0.00 | 0.00 | 26 | 1006.6 |
| 20260505203124 | 85 | 59 | 3.0 | 17.0 | 0.00 | 0.00 | 0.00 | 27 | 1006.7 |
| 20260505202554 | 85 | 360 | 4.0 | 17.0 | 0.00 | 0.00 | 0.00 | 27 | 1006.7 |
| 20260505202058 | 85 | 317 | 3.0 | 10.0 | 0.00 | 0.00 | 0.00 | 27 | 1006.8 |
| 20260505201558 | 85 | 274 | 2.0 | 8.0 | 0.00 | 0.00 | 0.00 | 28 | 1006.7 |
| 20260505201057 | 84 | 280 | 2.0 | 9.0 | 0.00 | 0.00 | 0.00 | 28 | 1006.8 |
| 20260505200557 | 84 | 283 | 2.0 | 11.0 | 0.00 | 0.00 | 0.00 | 29 | 1006.8 |
| 20260505200057 | 84 | 279 | 4.0 | 11.0 | 0.00 | 0.00 | 0.00 | 28 | 1006.8 |
| 20260505195558 | 85 | 58 | 3.0 | 10.0 | 0.00 | 0.00 | 0.00 | 27 | 1006.8 |
| 20260505195058 | 85 | 360 | 4.0 | 10.0 | 0.00 | 0.00 | 0.00 | 27 | 1006.9 |
| 20260505194558 | 85 | 134 | 4.0 | 10.0 | 0.00 | 0.00 | 0.00 | 27 | 1007.2 |
| 20260505194055 | 85 | 351 | 3.0 | 10.0 | 0.00 | 0.00 | 0.00 | 28 | 1006.9 |
| 20260505193558 | 85 | 40 | 3.0 | 9.0 | 0.00 | 0.00 | 0.00 | 29 | 1007.1 |
| 20260505193102 | 85 | 63 | 2.0 | 9.0 | 0.00 | 0.00 | 0.00 | 29 | 1007.3 |
| 20260505192557 | 85 | 273 | 3.0 | 9.0 | 0.00 | 0.00 | 0.00 | 30 | 1007.3 |
| 20260505192054 | 85 | 296 | 2.0 | 9.0 | 0.00 | 0.00 | 0.00 | 28 | 1007.4 |
| 20260505191603 | 85 | 324 | 2.0 | 8.0 | 0.00 | 0.00 | 0.00 | 29 | 1007.3 |
| 20260505191055 | 85 | 210 | 3.0 | 8.0 | 0.00 | 0.00 | 0.00 | 29 | 1007.5 |
| 20260505190554 | 85 | 175 | 2.0 | 9.0 | 0.00 | 0.00 | 0.00 | 30 | 1007.4 |
| 20260505190054 | 85 | 190 | 3.0 | 9.0 | 0.00 | 0.00 | 0.00 | 28 | 1007.5 |
| 20260505185557 | 85 | 82 | 3.0 | 9.0 | 0.00 | 0.00 | 0.00 | 27 | 1007.6 |
| 20260505185057 | 85 | 109 | 2.0 | 11.0 | 0.00 | 0.00 | 0.00 | 30 | 1007.7 |
| 20260505184555 | 85 | 360 | 2.0 | 11.0 | 0.00 | 0.00 | 0.00 | 29 | 1007.7 |
| 20260505184054 | 85 | 340 | 4.0 | 11.0 | 0.00 | 0.00 | 0.00 | 29 | 1007.9 |
| 20260505183556 | 85 | 296 | 3.0 | 10.0 | 0.00 | 0.00 | 0.00 | 30 | 1007.9 |
| 20260505183059 | 85 | 188 | 3.0 | 9.0 | 0.00 | 0.00 | 0.00 | 30 | 1007.9 |
| 20260505182557 | 85 | 192 | 3.0 | 11.0 | 0.00 | 0.00 | 0.00 | 31 | 1008.0 |
| 20260505182101 | 85 | 360 | 3.0 | 11.0 | 0.00 | 0.00 | 0.00 | 32 | 1007.9 |
| 20260505181559 | 84 | 360 | 3.0 | 9.0 | 0.00 | 0.00 | 0.00 | 32 | 1007.8 |
| 20260505181055 | 84 | 291 | 3.0 | 9.0 | 0.00 | 0.00 | 0.00 | 32 | 1007.9 |
| 20260505180554 | 84 | 360 | 3.0 | 9.0 | 0.00 | 0.00 | 0.00 | 33 | 1008.0 |
| 20260505175557 | 84 | 360 | 2.0 | 9.0 | 0.00 | 0.00 | 0.00 | 34 | 1007.9 |
| 20260505175059 | 84 | 360 | 3.0 | 9.0 | 0.00 | 0.00 | 0.00 | 33 | 1008.1 |
| 20260505174558 | 84 | 112 | 3.0 | 9.0 | 0.00 | 0.00 | 0.00 | 32 | 1008.2 |
| 20260505174057 | 84 | 360 | 4.0 | 9.0 | 0.00 | 0.00 | 0.00 | 33 | 1008.3 |
| 20260505173558 | 83 | 360 | 2.0 | 6.0 | 0.00 | 0.00 | 0.00 | 35 | 1008.3 |
| 20260505173103 | 83 | 360 | 2.0 | 7.0 | 0.00 | 0.00 | 0.00 | 35 | 1008.5 |
| 20260505172600 | 83 | 360 | 3.0 | 7.0 | 0.00 | 0.00 | 0.00 | 35 | 1008.6 |
| 20260505172057 | 83 | 360 | 2.0 | 6.0 | 0.00 | 0.00 | 0.00 | 36 | 1008.7 |
| 20260505171559 | 83 | 360 | 2.0 | 6.0 | 0.00 | 0.00 | 0.00 | 36 | 1008.7 |
| 20260505171057 | 83 | 360 | 2.0 | 5.0 | 0.00 | 0.00 | 0.00 | 35 | 1008.8 |
| 20260505170554 | 83 | 174 | 2.0 | 4.0 | 0.00 | 0.00 | 0.00 | 36 | 1008.9 |
| 20260505170059 | 82 | 315 | 1.0 | 4.0 | 0.00 | 0.00 | 0.00 | 37 | 1008.8 |
| 20260505165555 | 82 | 256 | 2.0 | 9.0 | 0.00 | 0.00 | 0.00 | 38 | 1008.9 |
| 20260505165056 | 82 | 295 | 1.0 | 9.0 | 0.00 | 0.00 | 0.00 | 39 | 1009.1 |
| 20260505164602 | 81 | 311 | 2.0 | 7.0 | 0.00 | 0.00 | 0.00 | 37 | 1009.1 |
| 20260505164057 | 81 | 343 | 2.0 | 7.0 | 0.00 | 0.00 | 0.00 | 39 | 1009.2 |
| 20260505163554 | 81 | 311 | 2.0 | 5.0 | 0.00 | 0.00 | 0.00 | 38 | 1009.2 |
| 20260505163102 | 81 | 333 | 1.0 | 5.0 | 0.00 | 0.00 | 0.00 | 39 | 1009.3 |
| 20260505162554 | 81 | 250 | 1.0 | 5.0 | 0.00 | 0.00 | 0.00 | 40 | 1009.4 |
| 20260505162058 | 80 | 360 | 1.0 | 5.0 | 0.00 | 0.00 | 0.00 | 40 | 1009.5 |
| 20260505161602 | 80 | 360 | 2.0 | 5.0 | 0.00 | 0.00 | 0.00 | 42 | 1009.5 |
| 20260505161057 | 79 | 360 | 1.0 | 4.0 | 0.00 | 0.00 | 0.00 | 43 | 1009.5 |
| 20260505160556 | 79 | 360 | 2.0 | 9.0 | 0.00 | 0.00 | 0.00 | 41 | 1009.6 |
| 20260505160108 | 78 | 360 | 2.0 | 9.0 | 0.00 | 0.00 | 0.00 | 43 | 1009.6 |
| 20260505153058 | 77 | 46 | 1.0 | 4.0 | 0.00 | 0.00 | 0.00 | 44 | 1010.1 |
| 20260505152558 | 76 | 360 | 1.0 | 4.0 | 0.00 | 0.00 | 0.00 | 46 | 1010.1 |
| 20260505152054 | 76 | 52 | 2.0 | 4.0 | 0.00 | 0.00 | 0.00 | 45 | 1010.2 |
| 20260505151558 | 76 | 360 | 1.0 | 4.0 | 0.00 | 0.00 | 0.00 | 46 | 1010.3 |
| 20260505151054 | 75 | 360 | 1.0 | 5.0 | 0.00 | 0.00 | 0.00 | 46 | 1010.2 |
| 20260505150558 | 75 | 360 | 1.0 | 5.0 | 0.00 | 0.00 | 0.00 | 48 | 1010.2 |
| 20260505140557 | 71 | 117 | 1.0 | 4.0 | 0.00 | 0.00 | 0.00 | 54 | 1010.7 |
| 20260505140113 | 71 | 118 | 1.0 | 5.0 | 0.00 | 0.00 | 0.00 | 54 | 1010.6 |